Location: Kissing
(48.3027°N, 10.9775°E)
Time: 17:46:58
(UTC+00:00)

Cosmos 2154 Rocket - Pass Details

Date: 07 June 2020
Orbit: 966 x 997 km, 82.9° (Epoch: 08 July)

Event Time Altitude Azimuth Distance (km) Brightness Sun altitude
Exits shadow 01:49:52 13° 206° (SSW) 2,476 5.5 -10.9°
Maximum altitude 01:55:18 58° 283° (WNW) 1,133 4.2 -10.4°
Drops below altitude 10° 02:01:27 10° 3° (N) 2,724 7.2 -9.8°
Sets 02:04:01 0° 7° (N) 3,672 8.1 -9.5°
